Overview Statistics Trail Chart Weather Telemetry Raw packets
 

This is the latest recevied weather packets stored in our database for station/object OH6GKW. If no packets are shown the sender has not sent any weather packets the latest 10 day(s).

<< 33 34 35 36 37 38 39 >>
Time Temp. Humidity Pressure Rain* Wind** Luminosity Snow
1788433435 18.33° C 71% 998.7 hPa 0 mm - 588 W/m² -
1788433125 17.78° C 72% 998.8 hPa 0 mm - 616 W/m² -
1788432820 18.33° C 72% 998.8 hPa 0 mm - 598 W/m² -
1788432518 18.33° C 72% 998.8 hPa 0 mm - 688 W/m² -
1788432213 17.78° C 74% 998.7 hPa 0 mm - 656 W/m² -
1788431920 17.78° C 73% 998.7 hPa 0 mm - 679 W/m² -
1788431618 18.33° C 73% 998.7 hPa 0 mm - 649 W/m² -
1788431310 18.33° C 73% 998.7 hPa 0 mm - 649 W/m² -
1788431026 17.78° C 75% 998.7 hPa 0 mm - 642 W/m² -
1788430719 17.78° C 75% 998.7 hPa 0 mm - 653 W/m² -
1788430411 17.78° C 76% 998.8 hPa 0 mm - 630 W/m² -
1788430134 17.78° C 76% 998.8 hPa 0 mm - 211 W/m² -
1788429828 17.22° C 76% 998.8 hPa 0 mm - 333 W/m² -
1788429520 17.78° C 74% 998.8 hPa 0 mm - 222 W/m² -
1788429217 17.22° C 76% 998.8 hPa 0 mm - 739 W/m² -
1788428912 17.78° C 77% 998.8 hPa 0 mm - 683 W/m² -
1788428649 17.22° C 78% 998.8 hPa 0 mm - 619 W/m² -
1788428320 17.22° C 79% 998.8 hPa 0 mm - 589 W/m² -
1788428015 17.22° C 81% 998.8 hPa 0 mm - 563 W/m² -
1788427733 16.67° C 81% 998.9 hPa 0 mm - 589 W/m² -
1788427426 16.67° C 83% 998.9 hPa 0 mm - 561 W/m² -
1788427120 16.11° C 84% 998.9 hPa 0 mm - 561 W/m² -
1788426815 16.11° C 86% 999 hPa 0 mm - 584 W/m² -
1788426527 15.56° C 87% 999 hPa 0 mm - 239 W/m² -
1788426222 15.56° C 86% 999 hPa 0 mm - 137 W/m² -

* Rain since midnight (hover to see other rain measurements)
** Current wind speed in m/s (hover to see current wind gust speed)